Location: Saint-Restitut
(44.3351°N, 4.7915°E)
Time: 12:57:53
(UTC+00:00)

Cosmos 1190 Rocket - Pass Details

Date: 03 February 2023
Orbit: 756 x 778 km, 74.1° (Epoch: 19 March)

Event Time Altitude Azimuth Distance (km) Brightness Sun altitude
Rises 17:32:11 0° 196° (SSW) 3,246 7.7 -7.5°
Reaches altitude 10° 17:34:33 10° 196° (SSW) 2,322 6.9 -7.9°
Maximum altitude 17:39:50 83° 109° (ESE) 788 4.0 -8.8°
Drops below altitude 10° 17:45:09 10° 22° (NNE) 2,330 6.2 -9.8°
Sets 17:47:32 0° 22° (NNE) 3,258 6.9 -10.2°
